AO-85
1 40967U 15058D 18235.42437725 .00000051 00000-0 23556-4 0 04253
2 40967 064.7780 347.1385 0211877 293.2588 064.6357 14.75758925063579
ATHENOXAT-1
1 41168U 15077C 18235.27901675 .00001754 00000-0 58920-4 0 9991
2 41168 14.9851 249.2169 0011874 252.9846 203.8577 15.12913584148554
ChubuSat-2
1 41338U 16012B 18235.39076489 .00000270 00000-0 14357-4 0 9997
2 41338 031.0023 246.6646 0013811 018.8131 341.3013 15.00011678137937
ChubuSat-3
1 41339U 16012C 18235.39618316 .00000302 00000-0 16798-4 0 9996
2 41339 31.0108 245.1329 0013637 25.1017 335.0306 15.00197096137927
Horyu-4
1 41340U 16012D 18235.41800208 .00000367 00000-0 21306-4 0 9996
2 41340 031.0041 239.1255 0014062 040.1393 320.0279 15.01034960138007
OUFTI-1
1 41458U 16025C 18235.73136115 .00001496 00000-0 81883-4 0 9994
2 41458 98.1321 302.1810 0168270 281.2274 77.0067 15.04859736127592
e-st@r-II
1 41459U 16025D 18235.61766842 -.00000096 00000-0 19447-8 0 9995
2 41459 98.1316 301.8736 0168910 282.5919 75.6452 15.04567736127566
AAUSAT4
1 41460U 16025E 18235.66309942 .00001740 00000-0 93594-4 0 9993
2 41460 98.1244 302.5324 0160654 277.8140 80.4874 15.06082049127641
LO-87
1 41557U 16033B 18235.82968325 .00000819 00000-0 33650-4 0 9996
2 41557 97.4358 319.8828 0011825 273.5167 86.4719 15.27009802124485
NuSat2
1 41558U 16033C 18235.80966991 .00000823 00000-0 32563-4 0 9999
2 41558 97.4378 320.0367 0011530 277.7468 82.2462 15.28308690124479
Lapan A3
1 41603U 16040E 18235.90393130 .00000135 00000-0 95203-5 0 9995
2 41603 97.4061 296.1759 0014035 10.6614 99.3717 15.19595374120360
Swayam
1 41607U 16040J 18235.16724039 .00001127 00000-0 51715-4 0 9994
2 41607 097.4080 297.2094 0013886 011.0254 349.1284 15.22414294120299
Pratham
1 41783U 16059A 18235.16589611 .00000022 00000-0 13613-4 0 9992
2 41783 098.1122 295.6239 0032388 244.2722 115.5135 14.62938057101751
AlSat 1N
1 41789U 16059G 18235.75024674 .00000061 00000-0 20763-4 0 9993
2 41789 98.1135 297.5611 0027160 233.7845 126.0835 14.64173563101903
ScatSat
1 41790U 16059H 18235.55374397 .00000008 00000-0 13271-4 0 9990
2 41790 098.2542 282.1001 0016999 243.2592 116.6864 14.50865326100955
TY-1
1 41844U 16066D 18235.86099102 .00001227 00000-0 54367-4 0 9995
2 41844 97.4065 241.9351 0016138 153.1587 290.4368 15.23426021 99183
Pegasus-1
1 41846U 16066F 18235.50365495 .00000232 00000-0 45176-4 0 9992
2 41846 098.7503 265.3255 0368918 047.2959 315.8676 14.37384492093571
CAS-2T
1 41847U 16066G 18235.54087069 .00000045 00000-0 16911-4 0 9992
2 41847 098.7463 265.8345 0366936 044.5208 318.4847 14.37914651094001
TO-89
1 41932U 98067KU 18235.40936864 .00034767 00000-0 17817-3 0 9992
2 41932 051.6311 353.2728 0002124 076.0601 284.0637 15.80931739091384
AOBA-V3LOX3
1 41935U 98067KX 18235.39204039 .00065296 00000-0 23877-3 0 9999
2 41935 051.6341 346.3246 0002258 019.3962 340.7128 15.87749300091570
EO-88
1 42017U 17008BX 18235.43851678 .00001164 00000-0 50060-4 0 9998
2 42017 097.4432 300.0844 0007620 133.7777 226.4092 15.24623600084314
HAVELSAT
1 42700U 98067LH 18235.80951936 .00025671 00000-0 17395-3 0 9992
2 42700 51.6345 8.0420 0002363 150.8594 209.2537 15.74820988 72660
SOMP2
1 42701U 98067LJ 18235.84647058 .00025850 00000-0 18520-3 0 9994
2 42701 51.6354 9.8040 0002553 145.9183 214.1980 15.73516644 72632
PHOENIX
1 42706U 98067LP 18235.87688410 .00018301 00000-0 14286-3 0 9997
2 42706 51.6360 10.7739 0001041 61.0929 299.0173 15.71733231 72544
X-CubeSat
1 42707U 98067LQ 18235.82305816 .00032639 00000-0 21126-3 0 9990
2 42707 51.6327 7.2856 0000755 44.4800 315.6260 15.75739706 72575
qbee
1 42708U 98067LR 18235.81264936 .00027889 00000-0 19049-3 0 9999
2 42708 51.6357 8.8178 0000796 27.5911 332.5130 15.74586757 72516
ZA-AeroSat
1 42713U 98067LU 18235.83824221 .00017768 00000-0 14746-3 0 9990
2 42713 51.6348 14.2561 0001959 57.2993 302.8194 15.70281851 72154
LINK
1 42714U 98067LV 18235.82343168 .00139673 18523-4 40207-3 0 9990
2 42714 51.6215 354.2425 0005683 337.9429 22.1333 15.92811359 72528
UPSat
1 42716U 98067LX 18235.77450558 .00058196 00000-0 27414-3 0 9990
2 42716 51.6310 0.9293 0000589 316.7546 43.3411 15.82520474 72457
SpaceCube
1 42717U 98067LY 18235.65433863 .00028744 00000-0 19790-3 0 9992
2 42717 51.6321 9.9648 0001361 148.5862 211.5219 15.74383412 71560
Hoopoe
1 42718U 98067LZ 18235.73555932 .00039371 00000-0 22480-3 0 9992
2 42718 51.6296 5.2265 0000595 117.5752 242.5309 15.78484177 71634
Challenger
1 42721U 98067MA 18224.59980250 .12090849 12543-4 42456-3 0 9997
2 42721 051.6121 042.1184 0010981 284.9336 075.0476 16.43490172069841
NJUST-1
1 42722U 98067MB 18235.81538130 .00017084 00000-0 14849-3 0 9994
2 42722 51.6358 16.3851 0004511 125.7811 234.3606 15.69184663 71198
UNSW-EC0
1 42723U 98067MC 18235.56647717 .00048901 00000-0 26124-3 0 9990
2 42723 051.6385 005.6746 0001617 132.2379 227.8760 15.79861009071295
DUTHsat
1 42724U 98067MD 18235.78659133 .01326505 11850-4 68182-3 0 9999
2 42724 51.6183 346.4345 0012332 332.8068 27.2311 16.19515804 71492
LO-90
1 42725U 98067ME 18235.79759404 .00022547 00000-0 16949-3 0 9996
2 42725 51.6358 12.4959 0003061 127.8948 232.2327 15.72471383 71144
nSIGHT1
1 42726U 98067MF 18235.80982117 .00007822 00000-0 91861-4 0 9994
2 42726 51.6391 26.1996 0005284 124.8695 235.2796 15.62524807 70972
SNUSAT 1B
1 42727U 98067MG 18235.49279462 .00023933 00000-0 17974-3 0 9995
2 42727 051.6337 014.1418 0004803 087.2820 272.8728 15.72446509071063
QBITO
1 42728U 98067MH 18235.79033911 .00029790 00000-0 20095-3 0 9991
2 42728 51.6369 9.4972 0001029 124.2391 235.8706 15.74837923 70995
Aalto-2
1 42729U 98067MJ 18235.81850000 .00029823 00000-0 19712-3 0 9992
2 42729 51.6330 8.8472 0000715 120.7141 239.3929 15.75307702 71015
SUSat
1 42730U 98067MK 18235.82388471 .00024610 00000-0 17928-3 0 9999
2 42730 51.6341 11.1460 0001343 126.4049 233.7073 15.73157187 70971
i-INSPIRE II
1 42731U 98067ML 18235.78231466 .00051118 00000-0 26057-3 0 9992
2 42731 51.6355 3.2646 0003003 42.0888 318.0344 15.80866198 71127
PolyITAN-2-SAU
1 42732U 98067MM 18235.83840191 .00031108 00000-0 20393-3 0 9994
2 42732 51.6338 8.1975 0003894 69.5039 290.6379 15.75467504 71066
ExAlta-1
1 42734U 98067MP 18235.78728479 .00055026 00000-0 26491-3 0 9994
2 42734 51.6282 2.4545 0002208 87.3079 272.8176 15.82074764 71085
Aoxiang-1
1 42735U 98067MQ 18235.89276929 .00017056 00000-0 14578-3 0 9999
2 42735 51.6350 15.3705 0004879 123.7227 236.4235 15.69593982 72344
BeEagleSat
1 42736U 98067MR 18235.81309347 .00022346 00000-0 17470-3 0 9995
2 42736 51.6348 13.3181 0004261 122.7785 237.3624 15.71539724 71057
CAS-4B
1 42759U 17034B 18235.76565661 .00000082 00000-0 18632-4 0 9997
2 42759 43.0193 72.2584 0008852 175.3863 246.2753 15.09345948 65663
CAS-4A
1 42761U 17034D 18235.74294257 .00000222 00000-0 27159-4 0 9998
2 42761 43.0196 72.1089 0009335 177.1092 239.0063 15.09423125 65656
UCLSat
1 42765U 17036A 18235.60092602 .00000909 00000-0 42808-4 0 9999
2 42765 097.3955 294.3479 0011379 192.0664 168.0301 15.21996157065557
NIUSat
1 42766U 17036B 18235.59074837 .00000739 00000-0 36870-4 0 9991
2 42766 097.3955 293.4656 0015867 182.2517 177.8649 15.20511508064777
LituanicaSAT 2
1 42768U 17036D 18235.41432407 .00001554 00000-0 71745-4 0 9991
2 42768 097.3974 293.7364 0015578 184.5301 175.5797 15.21603126064783
Aalto 1
1 42775U 17036L 18235.40905873 .00000585 00000-0 29546-4 0 9995
2 42775 097.3947 293.5280 0014078 182.4837 177.6331 15.20845803064710
